logo tempoitalia

Diretta Meteo Bucarest Otopeni, Romaniamercoledì 15 luglio ore 08:00

Mappa
Sereno 18 °C Sereno 24 Ore: T.min 15 T.max 25
Ponente Nord Km/h 5.5 Punto di rugiada: 15 °C Umidità: 82% Visibilità: 10 Km
Il sole sorge alle: 05:43 Il sole tramonta alle: 20:59
15 Luglio 2020 08:00 tempo osservato: Sereno Sereno 18 82 1016 vento: Nord N 5.5
15 Luglio 2020 07:00 tempo osservato: Sereno Sereno 16 93 1016 vento: Nord E 7.4
15 Luglio 2020 06:30 tempo osservato: Sereno Sereno 16 87 1016 vento: Nord N 5.5
15 Luglio 2020 06:00 tempo osservato: Sereno Sereno 15 93 1016 vento: Nord N 3.7
15 Luglio 2020 05:30 tempo osservato: Sereno Sereno 15 87 1016 vento: Nord N 5.5
15 Luglio 2020 04:30 tempo osservato: Sereno Sereno 16 77 1016 vento: Nord N 11.1
15 Luglio 2020 04:00 tempo osservato: Sereno Sereno 16 82 1016 vento: Nord N/NE 7.4
15 Luglio 2020 03:30 tempo osservato: Sereno Sereno 16 77 1016 vento: Nord N/NE 9.3
15 Luglio 2020 02:30 tempo osservato: Sereno Sereno 16 82 1016 vento: Nord E/NE 7.4
15 Luglio 2020 02:00 tempo osservato: Sereno Sereno 16 82 1016 vento: Nord E/NE 7.4
15 Luglio 2020 01:30 tempo osservato: Sereno Sereno 16 82 1016 vento: Nord E 9.3
15 Luglio 2020 00:30 tempo osservato: Sereno Sereno 16 87 1016 vento: Nord S/SE 7.4
15 Luglio 2020 00:00 tempo osservato: Sereno Sereno 16 93 1015 vento: Nord N 3.7
14 Luglio 2020 23:30 tempo osservato: Sereno Sereno 18 77 1015 vento: Nord E 9.3
14 Luglio 2020 23:00 tempo osservato: Sereno Sereno 17 88 1015 vento: Nord E/SE 7.4
14 Luglio 2020 22:00 tempo osservato: Sereno Sereno 19 72 1015 vento: Nord E 7.4
14 Luglio 2020 21:30 tempo osservato: Sereno Sereno 20 56 1015 vento: Nord E 7.4
14 Luglio 2020 21:00 tempo osservato: Sereno Sereno 21 49 1015 vento: Nord N 3.7
14 Luglio 2020 20:30 tempo osservato: Sereno Sereno 22 49 1015 vento: Nord N 1.8
14 Luglio 2020 20:00 tempo osservato: Sereno Sereno 24 43 1015 vento: Nord N 5.5
14 Luglio 2020 19:00 tempo osservato: Sereno Sereno 25 38 1015 vento: Nord NO 7.4
14 Luglio 2020 18:30 tempo osservato: Sereno Sereno 25 38 1015 vento: Nord N/NE 7.4
14 Luglio 2020 18:00 tempo osservato: Sereno Sereno 25 36 1015 vento: Nord N 3.7
14 Luglio 2020 17:30 tempo osservato: Sereno Sereno 25 38 1015 vento: Nord O 7.4
14 Luglio 2020 17:00 tempo osservato: Sereno Sereno 25 36 1015 vento: Nord N 5.5
14 Luglio 2020 16:30 tempo osservato: Sereno Sereno 25 36 1015 vento: Nord O 7.4
14 Luglio 2020 16:00 tempo osservato: Sereno Sereno 25 41 1016 vento: Nord O/NO 9.3
14 Luglio 2020 15:30 tempo osservato: Sereno Sereno 25 36 1016 vento: Nord O 13
14 Luglio 2020 14:30 tempo osservato: Sereno Sereno 24 38 1016 vento: Nord S 11.1
14 Luglio 2020 14:00 tempo osservato: Sereno Sereno 23 40 1017 vento: Nord S/SE 9.3
14 Luglio 2020 13:30 tempo osservato: Sereno Sereno 23 40 1017 vento: Nord N 5.5
14 Luglio 2020 13:00 tempo osservato: Sereno Sereno 23 40 1017 vento: Nord N 5.5
14 Luglio 2020 12:30 tempo osservato: Sereno Sereno 22 43 1017 vento: Nord SE 11.1
14 Luglio 2020 12:00 tempo osservato: Sereno Sereno 21 46 1017 vento: Nord E 9.3
14 Luglio 2020 11:30 tempo osservato: Sereno Sereno 22 43 1018 vento: Nord E/SE 13
14 Luglio 2020 11:00 tempo osservato: Sereno Sereno 22 43 1018 vento: Nord E/SE 13
14 Luglio 2020 10:30 tempo osservato: Sereno Sereno 21 46 1018 vento: Nord E 16.7
14 Luglio 2020 10:00 tempo osservato: Sereno Sereno 20 49 1018 vento: Nord E 16.7
14 Luglio 2020 09:30 tempo osservato: Sereno Sereno 19 55 1018 vento: Nord E 9.3
14 Luglio 2020 09:00 tempo osservato: Sereno Sereno 19 55 1018 vento: Nord E/NE 7.4